sat.trackr.live / text

‹ back to catalog

ONEWEB-0635

NORAD 56076 · 2023-043AG

PAYLOAD ACTIVE UNKNOWN

§ Identity

Operator
Country
UK
Launch date
2023-03-26
Launch site
SRILR
Launch vehicle
Mass (kg)
RCS (m²)

Purposes: comms

External: N2YO · Heavens-Above · Gunter

§ Orbital elements

Epoch: 2026-05-25T00:32:43.486656Z

Period
109.46 min
Inclination
87.9001°
Eccentricity
0.0002114
Mean motion
13.15549487 rev/d
Perigee alt
1,200.2 km
Apogee alt
1,203.4 km
Semi-major
7,579.9 km
B*
1.0746e-4
RAAN
263.8058°
Arg perigee
95.2065°
Mean anomaly
264.9307°
Rev number
15,338

§ Raw data

ONEWEB-06351 56076U 23043AG  26145.02272554  .00000053  00000+0  10746-3 0  99992 56076  87.9001 263.8058 0002114  95.2065 264.9307 13.15549487153386

JSON: /api/v1/satellites/56076 · /tle

For live sub-satellite position, see the globe view (requires WebGL).

§ Visibility from observer

Set your observer location to see the next 7 days of passes ≥ 10°. The values pass through the URL so the page stays shareable.

No JS? Fill the form by hand. The geolocation button needs JavaScript.